This demonstration page uses our WeatherBlox Daily Observations layout. Learn more.

Left ArrowRight Arrow

41.12389, -100.76542

Hourly Observations for March 26, 2018

Temp ( °F °C ) Dew Point ( °F °C ) Humidity (%) Winds ( mph kmh ) Pressure ( in mb ) Visibility ( mi km ) Precip ( " mm )
12:17 am 00:17 Cloudy with Mist and Fog 35 1.7 34 1.1 96 96 ENE 7 11 30.00 1016 3 4 0.00 0.00
12:51 am 00:51 Cloudy with Mist and Fog 36 2 34 1 93 93 E 6 9 29.97 1015 3 4 0.00 0.00
12:53 am 00:53 Cloudy with Mist and Fog 35 1.7 34 1.1 96 96 E 6 9 29.96 1015 3 4 0.00 0.00
1:00 am 01:00 Cloudy with Mist and Fog 35 1.7 34 1.1 96 96 ENE 8 13 30.00 1016 3 4 0.00 0.00
1:10 am 01:10 Cloudy with Mist and Fog 35 1.7 33 0.6 93 93 ENE 8 13 30.00 1016 3 5 0.00 0.00
1:53 am 01:53 Cloudy with Mist and Fog 34 1.1 32 0 92 92 ENE 8 13 29.97 1015 3 4 0.00 0.00
2:13 am 02:13 Cloudy with Mist and Fog 34 1.1 32 0 92 92 ENE 7 11 30.00 1016 3 5 0.00 0.00
4:01 am 04:01 Cloudy with Mist and Fog 34 1.1 32 0 92 92 E 9 15 29.97 1015 5 8 0.00 0.00
4:53 am 04:53 Mostly Cloudy 33 0.6 31 -0.6 92 92 ENE 5 7 29.92 1013 10 16 0.00 0.00
5:53 am 05:53 Cloudy 34 1.1 32 0 92 92 ESE 6 9 29.91 1013 10 16 0.00 0.00
6:30 am 06:30 Cloudy 34 1.1 32 0 92 92 ESE 5 7 29.94 1014 10 16 0.00 0.00
6:53 am 06:53 Cloudy 34 1.1 32 0 92 92 Calm 29.93 1013 10 16 0.00 0.00
7:00 am 07:00 Cloudy 34 1.1 32 0 92 92 Calm 29.97 1015 10 16 0.00 0.00
7:53 am 07:53 Cloudy 35 1.7 32 0 89 89 NE 3 6 29.94 1014 10 16 0.00 0.00
8:53 am 08:53 Cloudy 35 1.7 32 0 89 89 ENE 5 7 29.94 1014 10 16 0.00 0.00
9:53 am 09:53 Cloudy with Mist and Fog 36 2.2 34 1.1 93 93 Calm 29.96 1015 5 8 0.00 0.00
10:17 am 10:17 Cloudy with Mist and Fog 37 2.8 34 1.1 89 89 Calm 29.97 1015 5 8 0.00 0.00
10:39 am 10:39 Cloudy 37 2.8 34 1.1 89 89 Calm 30.00 1016 7 11 0.00 0.00
10:53 am 10:53 Cloudy 37 2.8 34 1.1 89 89 NW 6 9 29.96 1015 8 13 0.00 0.00
11:53 am 11:53 Cloudy 39 3.9 35 1.7 86 86 N 5 7 29.96 1015 10 16 0.00 0.00
12:30 pm 12:30 Cloudy 40 4.4 35 1.7 83 83 NNE 5 7 29.97 1015 10 16 0.00 0.00
12:53 pm 12:53 Cloudy 40 4.4 35 1.7 83 83 NNE 5 7 29.95 1014 10 16 0.00 0.00
1:53 pm 13:53 Cloudy 43 6.1 37 2.8 80 80 NNE 3 6 29.94 1014 10 16 0.00 0.00
2:53 pm 14:53 Cloudy 45 7.2 37 2.8 74 74 NNE 7 11 29.93 1014 10 16 0.00 0.00
3:01 pm 15:01 Cloudy 45 7.2 37 2.8 74 74 Calm 29.91 1013 10 16 0.00 0.00
3:53 pm 15:53 Cloudy 47 8.3 37 2.8 69 69 NE 3 6 29.91 1013 10 16 0.00 0.00
4:53 pm 16:53 Cloudy 47 8.3 37 2.8 69 69 NE 7 11 29.93 1013 10 16 0.00 0.00
5:34 pm 17:34 Cloudy 47 8.3 38 3.3 71 71 NE 10 17 29.91 1013 10 16 0.00 0.00
5:53 pm 17:53 Cloudy 47 8.3 37 2.8 69 69 NE 10 17 29.94 1014 10 16 0.00 0.00
6:53 pm 18:53 Cloudy 47 8.3 37 2.8 69 69 NNE 8 13 29.96 1014 10 16 0.00 0.00
7:53 pm 19:53 Cloudy 46 7.8 36 2.2 68 68 NNE 10 17 29.97 1015 10 16 0.00 0.00
8:53 pm 20:53 Clear 38 3.3 32 0 79 79 ENE 5 7 30.02 1017 10 16 0.00 0.00
9:53 pm 21:53 Partly Cloudy 34 1.1 32 0 92 92 NE 3 6 30.08 1019 10 16 0.00 0.00
10:53 pm 22:53 Mostly Cloudy 37 2.8 32 0 82 82 Calm 30.10 1019 10 16 0.00 0.00
11:53 pm 23:53 Cloudy 33 0.6 30 -1.1 89 89 Calm 30.12 1020 10 16 0.00 0.00

Powered by AerisWeather